Content
SEND FEEDBACK

Daily
Averages
Monthly
Summary
United States of America

HERMOSA, SOUTH DAKOTA


Home > North America > United States > South Dakota
Elevation: 3300 feet     Latitude: 43 50N     Longitude: 103 11W

WEATHER
 
SELECT A DAY
Number of Records: 204,993;   Date Range: 1/1/95 - 12/18/14
 
SHARE

PRINT THIS DATA

[ ← Previous Day ]
WEATHER ALMANAC - SEPTEMBER 18, 2013
[ Next Day → ]
[ °C ]   °F
Weather ElementAverageHighLow
Temperature71.2 °F91.9 °F (2:52 pm)57 °F (3:52 am)
Dewpoint47.5 °F53.1 °F (8:52 am)37.9 °F (2:52 pm)
Humidity48.2 %75 % (6:52 am)15 % (2:52 pm)
Barometer29.62 in29.79 in (11:52 pm)29.54 in (1:52 pm)
Wind Speed13.7 mph32.2 mph (9:52 pm)
Wind Gust48.3 mph (9:52 pm)
Weather ElementAverage
Visibility10 mi
Wind DirectionWSW (255.4 °)

Weather ElementTotal
Precipitation---
Cooling Degree Days9.5 (Base 65)
Growing Degree Days24.5 (Base 50)
Averaged from 24 records on September 18, 2013
WEATHER CONDITIONS BREAKOUT
WIND DIRECTION BREAKOUT
WEATHER BY HOUR - SEPTEMBER 18, 2013
[ °C ]   °F
Local TimeTemperatureDewpointHumidityBarometerVisibilityWind DirectionWind SpeedGust SpeedPrecipitationEventsConditions
1:52 AM59.0 °F48.0 °F67 %29.58 in10.0 miNNE (30°)4.6 mphClear
2:52 AM57.9 °F48.0 °F70 %29.60 in10.0 miSE (140°)3.5 mphClear
3:52 AM57.0 °F48.0 °F72 %29.57 in10.0 miCalmClear
4:52 AM64.9 °F48.9 °F56 %29.60 in10.0 miNorth (350°)11.5 mph16.1 mphClear
5:52 AM61.0 °F52.0 °F72 %29.60 in10.0 miNorth (360°)10.4 mphClear
6:52 AM59.0 °F51.1 °F75 %29.60 in10.0 miNNW (330°)5.8 mphClear
7:52 AM61.0 °F52.0 °F72 %29.62 in10.0 miWNW (290°)4.6 mphClear
8:52 AM63.0 °F53.1 °F70 %29.62 in10.0 miCalmClear
9:52 AM75.0 °F50.0 °F41 %29.61 in10.0 miSouth (180°)3.5 mphClear
10:52 AM82.9 °F51.1 °F33 %29.57 in10.0 miSSE (150°)13.8 mphClear
11:52 AM89.1 °F48.0 °F24 %29.55 in10.0 miWSW (240°)9.2 mphClear
12:52 PM91.0 °F46.9 °F22 %29.55 in10.0 miSW (220°)17.3 mphPartly Cloudy
1:52 PM91.0 °F43.0 °F19 %29.54 in10.0 miWest (270°)16.1 mph20.7 mphClear
2:52 PM91.9 °F37.9 °F15 %29.54 in10.0 miWNW (290°)13.8 mph19.6 mphPartly Cloudy
3:52 PM88.0 °F42.1 °F20 %29.55 in10.0 miWest (260°)12.7 mphClear
4:52 PM84.9 °F39.9 °F20 %29.56 in10.0 miWNW (290°)16.1 mph25.3 mphClear
5:34 PM77.0 °F50.0 °F39 %29.65 in10.0 miNorth (360°)27.6 mph33.4 mphClear
5:52 PM73.0 °F48.9 °F42 %29.60 in10.0 miNorth (350°)27.6 mph35.7 mphClear
6:52 PM68.0 °F50.0 °F52 %29.63 in10.0 miNNW (340°)24.2 mph29.9 mphClear
7:52 PM66.9 °F51.1 °F57 %29.68 in10.0 miNNW (340°)21.9 mph27.6 mphClear
8:52 PM66.0 °F50.0 °F56 %29.72 in10.0 miNNW (340°)17.3 mphClear
9:52 PM61.0 °F45.0 °F56 %29.77 in10.0 miNNW (340°)32.2 mph48.3 mphClear
10:52 PM60.1 °F43.0 °F53 %29.77 in10.0 miNNW (330°)13.8 mph23.0 mphClear
11:52 PM59.0 °F42.1 °F53 %29.79 in10.0 miNNW (330°)20.7 mph27.6 mphClear
Hourly data recorded from KRAP, located miles away from Hermosa, South Dakota







STORIES FROM OUR PARTNERS